DW4712 Weather Reports


time (UTC)temp
C
wind
direction
speed
KPH
gust
KPH
rain 1hr
cm
rain 24hr
cm
rain mn
cm
humidity
%
barometer
mb
20260510190048 26 0 0.0 9.7 0.00 0.00 0.00 30 1017.2
20260510184541 26 0 1.6 9.7 0.00 0.00 0.00 32 1017.1
20260510183042 26 226 4.8 9.7 0.00 0.00 0.00 31 1017.3
20260510181535 26 219 3.2 8.0 0.00 0.00 0.00 30 1017.4
20260510180044 26 360 1.6 9.7 0.00 0.00 0.00 28 1017.7
20260510174548 26 204 4.8 11.3 0.00 0.00 0.00 33 1017.6
20260510173038 26 54 0.0 4.8 0.00 0.00 0.00 32 1017.9
20260510171546 25 0 0.0 6.4 0.00 0.00 0.00 35 1018.0
20260510170043 25 77 1.6 8.0 0.00 0.00 0.00 36 1017.9
20260510164553 25 256 1.6 8.0 0.00 0.00 0.00 34 1018.0
20260510163042 25 0 0.0 6.4 0.00 0.00 0.00 35 1018.2
20260510161540 25 266 0.0 8.0 0.00 0.00 0.00 36 1018.3
20260510160046 24 256 1.6 8.0 0.00 0.00 0.00 39 1018.3
20260510154544 24 0 1.6 6.4 0.00 0.00 0.00 45 1018.3
20260510153047 23 0 1.6 8.0 0.00 0.00 0.00 53 1018.4
20260510151549 23 0 1.6 6.4 0.00 0.00 0.00 48 1018.5
20260510150056 22 317 1.6 6.4 0.00 0.00 0.00 54 1018.5
20260510144609 21 0 0.0 3.2 0.00 0.00 0.00 52 1018.4
20260510143042 21 0 0.0 4.8 0.00 0.00 0.00 53 1018.4
20260510141543 20 0 0.0 6.4 0.00 0.00 0.00 56 1018.5
20260510140042 20 350 0.0 4.8 0.00 0.00 0.00 61 1018.5
20260510134549 19 336 0.0 4.8 0.00 0.00 0.00 65 1018.5
20260510133047 19 339 0.0 8.0 0.00 0.00 0.00 67 1018.4
20260510131546 18 320 0.0 6.4 0.00 0.00 0.00 69 1018.4
20260510130052 17 0 0.0 3.2 0.00 0.00 0.00 70 1018.2
20260510124541 17 5 0.0 4.8 0.00 0.00 0.00 73 1018.2
20260510123044 16 0 0.0 6.4 0.00 0.00 0.00 74 1018.1
20260510121544 15 0 0.0 3.2 0.00 0.00 0.00 81 1017.9
20260510120042 14 279 0.0 6.4 0.00 0.00 0.00 84 1017.5
20260510114605 13 0 0.0 3.2 0.00 0.00 0.00 86 1017.1
20260510113053 13 0 0.0 0.0 0.00 0.00 0.00 91 1017.0
20260510111545 12 0 0.0 1.6 0.00 0.00 0.00 91 1017.0
20260510110045 12 0 0.0 0.0 0.00 0.00 0.00 91 1016.6
20260510104547 12 0 0.0 0.0 0.00 0.00 0.00 91 1016.4
20260510103041 12 0 0.0 1.6 0.00 0.00 0.00 91 1016.2
20260510101543 12 0 0.0 3.2 0.00 0.00 0.00 92 1015.8
20260510100058 12 0 0.0 0.0 0.00 0.00 0.00 92 1015.6
20260510094550 13 0 0.0 0.0 0.00 0.00 0.00 92 1015.6
20260510093043 13 0 0.0 0.0 0.00 0.00 0.00 92 1015.6
20260510091544 13 0 0.0 1.6 0.00 0.00 0.00 92 1015.5
20260510090046 13 0 0.0 0.0 0.00 0.00 0.00 93 1015.3
20260510084542 13 0 0.0 0.0 0.00 0.00 0.00 93 1015.1
20260510083045 13 0 0.0 0.0 0.00 0.00 0.00 92 1015.0
20260510081536 13 0 0.0 0.0 0.00 0.00 0.00 92 1014.9
20260510080035 13 0 0.0 0.0 0.00 0.00 0.00 92 1014.6
20260510074545 14 0 0.0 0.0 0.00 0.00 0.00 92 1014.5
20260510073052 14 0 0.0 0.0 0.00 0.00 0.00 91 1014.3
20260510071539 14 0 0.0 0.0 0.00 0.00 0.00 91 1014.4
20260510070047 14 0 0.0 0.0 0.00 0.00 0.00 92 1014.2
20260510064549 14 0 0.0 0.0 0.00 0.00 0.00 91 1014.3
20260510063043 14 0 0.0 0.0 0.00 0.00 0.00 91 1014.5
20260510061541 15 0 0.0 0.0 0.00 0.00 0.00 90 1014.6
20260510060044 15 0 0.0 0.0 0.00 0.00 0.00 90 1014.4
20260510054534 15 0 0.0 0.0 0.00 0.00 0.00 90 1014.4
20260510053041 15 0 0.0 1.6 0.00 0.00 0.00 89 1014.6
20260510051543 15 0 0.0 0.0 0.00 0.00 0.00 90 1014.6
20260510050037 15 0 0.0 0.0 0.00 0.00 0.00 89 1014.7
20260510044537 15 0 0.0 0.0 0.00 0.00 0.00 88 1014.7
20260510043043 16 0 0.0 0.0 0.00 0.00 0.00 87 1014.7
20260510041549 16 0 0.0 0.0 0.00 0.00 0.00 87 1014.6
20260510040042 16 0 0.0 0.0 0.00 0.00 0.00 86 1014.6
20260510034539 16 0 0.0 0.0 0.00 0.00 0.00 85 1014.5
20260510033039 17 0 0.0 1.6 0.00 0.00 0.00 82 1014.6
20260510031535 17 0 0.0 0.0 0.00 0.00 0.00 82 1014.6
20260510030043 17 0 0.0 1.6 0.00 0.00 0.00 82 1014.6
20260510024544 17 0 0.0 1.6 0.00 0.00 0.00 82 1014.6
20260510023044 17 0 0.0 1.6 0.00 0.00 0.00 81 1014.5
20260510021543 17 0 0.0 1.6 0.00 0.00 0.00 80 1014.3
20260510020043 17 0 0.0 0.0 0.00 0.00 0.00 80 1014.1
20260510014558 18 0 0.0 4.8 0.00 0.00 0.00 77 1014.1
20260510013041 18 0 0.0 0.0 0.00 0.00 0.00 77 1013.7
20260510011543 18 0 0.0 3.2 0.00 0.00 0.00 75 1013.4
20260510010054 19 248 0.0 3.2 0.00 0.00 0.00 75 1013.0
20260510004539 19 0 0.0 1.6 0.00 0.00 0.00 73 1012.8
20260510003054 20 0 0.0 1.6 0.00 0.00 0.00 73 1012.6
20260510001541 20 0 0.0 0.0 0.00 0.00 0.00 72 1012.4
20260510000051 20 0 0.0 1.6 0.00 0.00 0.00 69 1012.3
20260509234546 21 0 0.0 4.8 0.00 0.00 0.00 69 1012.3
20260509233039 21 254 1.6 6.4 0.00 0.00 0.00 68 1012.2
20260509231544 21 0 1.6 6.4 0.00 0.00 0.00 67 1011.8
20260509230044 21 259 1.6 6.4 0.00 0.00 0.00 65 1011.7
20260509224541 21 0 0.0 6.4 0.00 0.00 0.00 63 1011.3
20260509223035 21 227 3.2 9.7 0.00 0.00 0.00 63 1011.4
20260509221534 22 281 3.2 11.3 0.00 0.00 0.00 63 1011.4
20260509220056 22 249 3.2 11.3 0.00 0.00 0.00 62 1011.3
20260509214543 22 246 3.2 12.9 0.00 0.00 0.00 61 1011.3
20260509213041 22 238 1.6 11.3 0.00 0.00 0.00 61 1011.2
20260509211546 22 240 3.2 11.3 0.00 0.00 0.00 59 1011.4
20260509210046 22 256 3.2 9.7 0.00 0.00 0.00 61 1011.2
20260509204555 22 136 1.6 12.9 0.00 0.00 0.00 59 1010.9
20260509203039 22 245 4.8 12.9 0.00 0.00 0.00 62 1011.0
20260509201541 22 212 3.2 8.0 0.00 0.00 0.00 59 1011.1
20260509200044 21 273 1.6 6.4 0.00 0.00 0.00 64 1011.3
20260509194545 21 242 3.2 14.5 0.00 0.00 0.00 66 1011.3
20260509193045 21 244 1.6 11.3 0.00 0.00 0.00 63 1011.6
20260509191540 21 211 1.6 8.0 0.00 0.00 0.00 63 1011.7